This is the latest recevied weather packets stored in our database for station/object KC3BHK-2. If no packets are shown the sender has not sent any weather packets the latest 10 day(s).
| Time | Temp. | Humidity | Pressure | Rain* | Wind** | Luminosity | Snow |
|---|---|---|---|---|---|---|---|
| 1777907505 | 20.56° C | - | - | 0 mm | 4.47 m/s, 235° | - | - |
| 1777907200 | 20° C | - | - | 0 mm | 3.13 m/s, 249° | - | - |
| 1777906893 | 20° C | - | - | 0 mm | 3.13 m/s, 172° | - | - |
| 1777906588 | 21.11° C | - | - | 0 mm | 2.24 m/s, 197° | - | - |
| 1777906284 | 19.44° C | - | - | 0 mm | 2.68 m/s, 180° | - | - |
| 1777905979 | 20° C | - | - | 0 mm | 1.79 m/s, 155° | - | - |
| 1777905674 | 20° C | - | - | 0 mm | 1.79 m/s, 193° | - | - |
| 1777905369 | 19.44° C | - | - | 0 mm | 3.58 m/s, 158° | - | - |
| 1777905062 | 19.44° C | - | - | 0 mm | 3.58 m/s, 166° | - | - |
| 1777904757 | 18.89° C | - | - | 0 mm | 3.13 m/s, 231° | - | - |
| 1777904452 | 18.89° C | - | - | 0 mm | 2.68 m/s, 135° | - | - |
| 1777904147 | 18.89° C | - | - | 0 mm | 2.68 m/s, 159° | - | - |
| 1777903843 | 18.33° C | - | - | 0 mm | 2.24 m/s, 190° | - | - |
| 1777903538 | 17.78° C | - | - | 0 mm | 1.34 m/s, 194° | - | - |
| 1777903230 | 17.78° C | - | - | 0 mm | 2.68 m/s, 141° | - | - |
| 1777902926 | 17.22° C | - | - | 0 mm | 2.68 m/s, 188° | - | - |
| 1777902621 | 17.22° C | - | - | 0 mm | 3.13 m/s, 190° | - | - |
| 1777902316 | 17.22° C | - | - | 0 mm | 3.13 m/s, 203° | - | - |
| 1777902011 | 17.22° C | - | - | 0 mm | 0.45 m/s, 73° | - | - |
| 1777901706 | 16.11° C | - | - | 0 mm | 1.79 m/s, 135° | - | - |
| 1777901399 | 16.11° C | - | - | 0 mm | 1.34 m/s, 172° | - | - |
| 1777901094 | 15.56° C | - | - | 0 mm | 1.79 m/s, 131° | - | - |
| 1777900789 | 15.56° C | - | - | 0 mm | 2.24 m/s, 172° | - | - |
| 1777900483 | 15° C | - | - | 0 mm | 2.68 m/s, 145° | - | - |
| 1777900178 | 14.44° C | - | - | 0 mm | 1.79 m/s, 208° | - | - |
* Rain latest hour (hover to see other rain measurements)
** Current wind speed in m/s (hover to see current wind gust speed)